Regional Weather Roundup
Issued by NWS Green Bay, WI

Home | Current Version | Previous Version | Graphics & Text | Print | Product List | Glossary Off
Versions: 1 2 3 4 5 6 7 8 9 10 11 12 13 14 15 16 17 18 19 20 21 22 23 24 25 26 27 28 29 30 31 32 33 34 35 36 37 38 39 40 41 42 43 44 45 46 47 48 49 50

000
ASUS43 KGRB 221511
RWRGRB

NORTH-CENTRAL AND NORTHEAST WISCONSIN REGIONAL WEATHER ROUNDUP
NATIONAL WEATHER SERVICE GREEN BAY WI
1000 AM CDT FRI MAY 22 2015

WIZ005-009-010>012-018-019-221600-
NORTH CENTRAL WISCONSIN

CITY           SKY/WX    TMP DP  RH WIND       PRES   REMARKS
IRONWOOD       SUNNY     57  27  30 NW9       30.19S
MANITOWISH WTR SUNNY     56  29  34 NW8       30.21S
ARBOR VITAE    SUNNY     57  25  29 N9        30.21S
EAGLE RIVER    SUNNY     56  23  28 N3        30.21S
LAND O LAKES   SUNNY     56  19  23 N3        30.22R
RHINELANDER    SUNNY     58  29  33 VRB6      30.22R
PHILLIPS       SUNNY     58  33  38 N6        30.21S
ANTIGO         SUNNY     55  33  43 W9        30.22S
TOMAHAWK       SUNNY     58  29  33 NW5       30.23R
MERRILL        SUNNY     56  35  45 SW3       30.23S
$$

WIZ013-073-221600-
NORTHEAST WISCONSIN

CITY           SKY/WX    TMP DP  RH WIND       PRES   REMARKS
IRON MOUNTAIN  SUNNY     54  21  27 CALM      30.21S
MARINETTE      SUNNY     48  30  49 SE9       30.24R
OCONTO         SUNNY     54  21  27 CALM      30.23S
$$

WIZ017-030-035>037-045-221600-
CENTRAL WISCONSIN

CITY           SKY/WX    TMP DP  RH WIND       PRES   REMARKS
MEDFORD        SUNNY     56  34  43 W3        30.22S
WAUSAU         SUNNY     57  33  40 S3        30.21S
MOSINEE        SUNNY     55  32  41 SW6       30.23S
MARSHFIELD     SUNNY     57  34  41 VRB5      30.22S
WISC RAPIDS    SUNNY     60  29  30 S3        30.23F
STEVENS POINT  SUNNY     56  30  37 SW5       30.23S
WAUPACA        SUNNY     59  26  28 CALM      30.24S
SHAWANO        SUNNY     57  29  34 CALM      30.24S
CLINTONVILLE   SUNNY     55  30  38 S5        30.23F
$$

WIZ038-039-048-051-221600-
FOX VALLEY

CITY           SKY/WX    TMP DP  RH WIND       PRES   REMARKS
NWS GREEN BAY  SUNNY     57  25  29 CALM      30.24R
APPLETON       SUNNY     57  27  30 CALM      30.24R
OSHKOSH        SUNNY     56  30  37 NE6       30.23R
FOND DU LAC    SUNNY     57  27  31 CALM      30.23S
$$

WIZ022-050-052-221600-
EAST CENTRAL WISCONSIN

CITY           SKY/WX    TMP DP  RH WIND       PRES   REMARKS
STURGEON BAY   SUNNY     50  27  40 NW5       30.27R
MANITOWOC      SUNNY     56  26  31 SE3       30.24R
SHEBOYGAN      SUNNY     56  31  38 CALM      30.24R
$$

LMZ563-521-522-541>543-221600-
LAKESHORE

STATION/POSITION TIME  TEMP    WIND        PRES    VSBY  WAVE
                       AIR SEA DIR/SP/G                  HT/PER
                 (UTC) (F)     (DEG/KT/KT) (MB)    (MI)  (FT/S)
SHEBOYGAN LKSHOR 1500           60/  4/  4 1025.0R
KEWAUNEE LKSHORE 1400   48      90/  3/  6 1022.7R
NORTHPORT PIER   1400   45      80/  6/  8 1023.7R
N MID LAKE BUOY  1450   38 36   50/  8/ 10 1024.7R         1
SISTER BAY LKSHO 1417   50     360/ 10/ 10   N/A
CHAMBERS ISLAND  1400   45      10/  6/  7 1024.0R
MENOMINEE LKSHOR 1400   45      40/  7/  8 1024.3R
$$



USA.gov is the U.S. government's official web portal to all federal, state and local government web resources and services.